Marianna, FL

10:03 AM CST on December 16, 2017 (GMT -0600)
Marianna Municipal

Weather History for KMAI - September, 2013

Change the Weather History Date:

Saturday, September 7, 2013

  Actual Average Record
Temperature  
Mean Temperature 82 °F 80 °F  
Max Temperature 92 °F 90 °F 97 °F (2010)
Min Temperature 71 °F 70 °F 59 °F (2011)
Degree Days  
Heating Degree Days 0    
Month to date heating degree days 0  
Since 1 July heating degree days 0  
Cooling Degree Days 17    
Month to date cooling degree days 120  
Year to date cooling degree days 1983  
Growing Degree Days 31 (Base 50)    
Moisture  
Dew Point 70 °F    
Average Humidity 74    
Maximum Humidity 100    
Minimum Humidity 47    
Precipitation  
Precipitation 0.00 in 0.13 in 0.37 in (1999)
Month to date precipitation 0.49 0.90  
Year to date precipitation 51.17 39.23  
Sea Level Pressure  
Sea Level Pressure 30.01 in    
Wind  
Wind Speed 3 mph (ENE)    
Max Wind Speed 9 mph    
Max Gust Speed 14 mph    
Visibility 10 miles    
Events Rain    
T = Trace of Precipitation, MM = Missing Value Source: NWS Daily Summary

Daily Weather History Graph

Daily Weather History Graph

Search for Another Location

Airport or City:

Trip Planner

Search our weather history database for the weather conditions in past years. The results will help you decide how hot, cold, wet, or windy it might be!

Date:

Astronomy

Sep. 07, 2013 Rise Set
Actual Time 6:20 AM CDT 6:56 PM CDT
Civil Twilight 5:56 AM CDT 7:20 PM CDT
Nautical Twilight 5:27 AM CDT 7:49 PM CDT
Astronomical Twilight 4:58 AM CDT 8:18 PM CDT
Moon 8:21 AM CDT (9/7) 8:08 PM CDT (9/7)
Length of Visible Light 13h 24m
Length of Day
12h 35m
Waxing Crescent, 5% of the Moon is Illuminated
Sep 7
Waxing Crescent
Sep 12
First Quarter
Sep 19
Full
Sep 26
Last Quarter
Oct 4
New

Hourly Weather History & Observations

Time (CDT) Temp. Heat Index Dew Point Humidity Pressure Visibility Wind Dir Wind Speed Gust Speed Precip Events Conditions
12:53 AM 75.9 °F - 72.0 °F 87% 30.01 in 10.0 mi Calm Calm - N/A   Partly Cloudy
1:53 AM 75.0 °F - 72.0 °F 90% 30.01 in 10.0 mi Calm Calm - N/A   Clear
2:53 AM 73.9 °F - 72.0 °F 93% 30.00 in 10.0 mi Calm Calm - N/A   Clear
3:53 AM 73.0 °F - 71.1 °F 93% 30.01 in 10.0 mi East 4.6 mph - N/A   Clear
4:34 AM 73.4 °F - 71.6 °F 94% 30.01 in 10.0 mi Calm Calm - N/A   Partly Cloudy
4:53 AM 72.0 °F - 71.1 °F 97% 30.01 in 10.0 mi Calm Calm - N/A   Clear
5:53 AM 72.0 °F - 70.0 °F 93% 30.03 in 10.0 mi Calm Calm - N/A   Clear
6:53 AM 72.0 °F - 70.0 °F 93% 30.04 in 10.0 mi NE 3.5 mph - N/A   Clear
7:53 AM 73.9 °F - 71.1 °F 91% 30.04 in 10.0 mi East 4.6 mph - N/A   Clear
8:53 AM 79.0 °F - 72.0 °F 79% 30.05 in 10.0 mi NE 5.8 mph - N/A   Clear
9:53 AM 84.9 °F 90.1 °F 71.1 °F 63% 30.06 in 10.0 mi Variable 3.5 mph - N/A   Clear
10:53 AM 86.0 °F 88.8 °F 66.9 °F 53% 30.06 in 10.0 mi ESE 10.4 mph - N/A   Clear
11:53 AM 88.0 °F 90.3 °F 66.0 °F 48% 30.05 in 10.0 mi East 8.1 mph - N/A   Clear
12:53 PM 89.1 °F 92.9 °F 68.0 °F 50% 30.04 in 10.0 mi Calm Calm - N/A   Clear
1:53 PM 90.0 °F 93.6 °F 68.0 °F 48% 30.02 in 10.0 mi NE 9.2 mph - N/A   Partly Cloudy
2:53 PM 87.1 °F 89.2 °F 66.0 °F 49% 29.99 in 10.0 mi Calm Calm - N/A   Partly Cloudy
3:53 PM 90.0 °F 92.4 °F 66.0 °F 45% 29.98 in 10.0 mi East 5.8 mph - N/A   Clear
4:53 PM 90.0 °F 92.4 °F 66.0 °F 45% 29.97 in 10.0 mi ENE 4.6 mph - N/A   Clear
5:53 PM 88.0 °F 90.7 °F 66.9 °F 49% 29.96 in 10.0 mi NE 4.6 mph - N/A   Clear
6:53 PM 84.0 °F 87.0 °F 68.0 °F 58% 29.97 in 10.0 mi Calm Calm - N/A   Clear
7:53 PM 80.1 °F 83.6 °F 71.1 °F 74% 29.98 in 10.0 mi Calm Calm - N/A   Clear
8:53 PM 78.1 °F - 71.1 °F 79% 30.00 in 10.0 mi Calm Calm - N/A   Clear
9:53 PM 75.0 °F - 71.1 °F 87% 30.00 in 10.0 mi Calm Calm - N/A   Clear
10:53 PM 75.0 °F - 71.1 °F 87% 30.00 in 10.0 mi Calm Calm - 0.00 in Rain Light Rain
11:53 PM 73.9 °F - 70.0 °F 87% 29.99 in 10.0 mi Calm Calm - 0.00 in Rain Light Rain